Time,TemperatureF,DewpointF,PressureIn,WindDirection,WindDirectionDegrees,WindSpeedMPH,WindSpeedGustMPH,Humidity,HourlyPrecipIn,Conditions,Clouds,dailyrainin,SoftwareType,DateUTC
2013-03-13 14:00:00,57.5,20.0,29.89,ENE,76,0.0,0.0,23,0.00,,---,0.00,VWS V14.01,2013-03-13 18:00:00,
2013-03-13 14:32:00,57.0,21.5,29.88,NE,43,0.0,0.0,25,0.00,,---,0.00,VWS V14.01,2013-03-13 18:32:00,
2013-03-13 14:33:00,57.0,21.5,29.88,NE,51,0.0,0.0,25,0.00,,---,0.00,VWS V14.01,2013-03-13 18:33:00,
2013-03-13 14:34:00,57.0,20.6,29.88,NE,55,0.0,0.0,24,0.00,,---,0.00,VWS V14.01,2013-03-13 18:34:00,
2013-03-13 14:35:00,56.9,21.5,29.88,NNE,22,0.0,0.0,25,0.00,,---,0.00,VWS V14.01,2013-03-13 18:35:00,
2013-03-13 14:36:00,56.9,21.5,29.88,NNE,21,0.0,0.0,25,0.00,,---,0.00,VWS V14.01,2013-03-13 18:36:00,
2013-03-13 14:37:00,56.9,20.5,29.88,NE,42,0.0,0.0,24,0.00,,---,0.00,VWS V14.01,2013-03-13 18:37:00,
2013-03-13 14:38:00,56.9,21.5,29.88,NE,51,0.0,0.0,25,0.00,,---,0.00,VWS V14.01,2013-03-13 18:38:00,
2013-03-13 14:39:00,56.9,21.5,29.88,North,5,0.0,0.0,25,0.00,,---,0.00,VWS V14.01,2013-03-13 18:39:00,
2013-03-13 14:40:00,56.9,20.5,29.88,NNE,24,0.0,0.0,24,0.00,,---,0.00,VWS V14.01,2013-03-13 18:40:00,
2013-03-13 14:41:00,56.9,21.5,29.88,North,5,0.0,0.0,25,0.00,,---,0.00,VWS V14.01,2013-03-13 18:41:00,
2013-03-13 14:42:00,56.7,21.3,29.88,NE,49,0.0,0.0,25,0.00,,---,0.00,VWS V14.01,2013-03-13 18:42:00,
2013-03-13 14:43:00,56.7,21.3,29.88,ENE,60,0.0,0.0,25,0.00,,---,0.00,VWS V14.01,2013-03-13 18:43:00,
2013-03-13 14:44:00,56.7,22.2,29.88,NNE,24,0.0,0.0,26,0.00,,---,0.00,VWS V14.01,2013-03-13 18:44:00,
2013-03-13 14:45:00,56.7,22.2,29.87,NE,54,0.0,0.0,26,0.00,,---,0.00,VWS V14.01,2013-03-13 18:45:00,
2013-03-13 14:46:00,56.7,21.3,29.87,East,86,0.0,0.0,25,0.00,,---,0.00,VWS V14.01,2013-03-13 18:46:00,
2013-03-13 14:47:00,56.7,21.3,29.87,ENE,78,0.0,0.0,25,0.00,,---,0.00,VWS V14.01,2013-03-13 18:47:00,
2013-03-13 14:48:00,56.7,22.2,29.87,NE,53,0.0,0.0,26,0.00,,---,0.00,VWS V14.01,2013-03-13 18:48:00,
2013-03-13 14:49:00,56.7,21.3,29.87,NE,41,0.0,0.0,25,0.00,,---,0.00,VWS V14.01,2013-03-13 18:49:00,
2013-03-13 14:50:00,56.7,21.3,29.87,NE,36,0.0,0.0,25,0.00,,---,0.00,VWS V14.01,2013-03-13 18:50:00,
2013-03-13 14:51:00,56.9,21.5,29.87,North,350,0.0,0.0,25,0.00,,---,0.00,VWS V14.01,2013-03-13 18:51:00,
2013-03-13 14:52:00,56.9,21.5,29.87,NE,36,0.0,0.0,25,0.00,,---,0.00,VWS V14.01,2013-03-13 18:52:00,
2013-03-13 14:53:00,57.0,22.5,29.87,NE,46,0.0,0.0,26,0.00,,---,0.00,VWS V14.01,2013-03-13 18:53:00,
2013-03-13 14:54:00,57.0,22.5,29.87,NNW,348,0.0,0.0,26,0.00,,---,0.00,VWS V14.01,2013-03-13 18:54:00,
2013-03-13 14:55:00,57.2,21.7,29.87,NE,47,0.0,0.0,25,0.00,,---,0.00,VWS V14.01,2013-03-13 18:55:00,
2013-03-13 14:56:00,57.3,21.8,29.87,NE,38,0.0,0.0,25,0.00,,---,0.00,VWS V14.01,2013-03-13 18:56:00,
2013-03-13 14:57:00,57.3,21.8,29.87,NNW,347,0.0,0.0,25,0.00,,---,0.00,VWS V14.01,2013-03-13 18:57:00,
2013-03-13 14:58:00,57.5,22.0,29.87,NNW,346,0.0,0.0,25,0.00,,---,0.00,VWS V14.01,2013-03-13 18:58:00,
2013-03-13 14:59:00,57.5,22.0,29.86,NNE,26,0.0,0.0,25,0.00,,---,0.00,VWS V14.01,2013-03-13 18:59:00,
2013-03-13 15:00:00,57.5,22.0,29.86,NNE,31,0.0,0.0,25,0.00,,---,0.00,VWS V14.01,2013-03-13 19:00:00,
2013-03-13 15:01:00,57.5,22.0,29.86,NNE,21,0.0,0.0,25,0.00,,---,0.00,VWS V14.01,2013-03-13 19:01:00,
2013-03-13 15:02:00,57.5,22.0,29.86,NNE,15,0.0,0.0,25,0.00,,---,0.00,VWS V14.01,2013-03-13 19:02:00,
2013-03-13 15:03:00,57.6,23.0,29.86,ENE,57,0.0,0.0,26,0.00,,---,0.00,VWS V14.01,2013-03-13 19:03:00,
2013-03-13 15:04:00,57.8,21.3,29.86,NE,51,0.0,0.0,24,0.00,,---,0.00,VWS V14.01,2013-03-13 19:04:00,
2013-03-13 15:05:00,57.8,21.3,29.86,NNE,17,0.0,0.0,24,0.00,,---,0.00,VWS V14.01,2013-03-13 19:05:00,
2013-03-13 15:06:00,58.0,21.4,29.86,North,360,0.0,0.0,24,0.00,,---,0.00,VWS V14.01,2013-03-13 19:06:00,
2013-03-13 15:07:00,58.0,21.4,29.86,NNE,15,0.0,0.0,24,0.00,,---,0.00,VWS V14.01,2013-03-13 19:07:00,
2013-03-13 15:08:00,58.1,21.5,29.86,ENE,57,0.0,0.0,24,0.00,,---,0.00,VWS V14.01,2013-03-13 19:08:00,
2013-03-13 15:09:00,58.1,20.5,29.86,NE,42,0.0,0.0,23,0.00,,---,0.00,VWS V14.01,2013-03-13 19:09:00,
2013-03-13 15:10:00,58.1,20.5,29.86,NE,42,0.0,0.0,23,0.00,,---,0.00,VWS V14.01,2013-03-13 19:10:00,
2013-03-13 15:11:00,58.3,20.7,29.86,ENE,73,0.0,0.0,23,0.00,,---,0.00,VWS V14.01,2013-03-13 19:11:00,
2013-03-13 15:12:00,58.3,20.7,29.86,NE,48,0.0,0.0,23,0.00,,---,0.00,VWS V14.01,2013-03-13 19:12:00,
2013-03-13 15:13:00,58.3,21.7,29.86,NNE,21,0.0,0.0,24,0.00,,---,0.00,VWS V14.01,2013-03-13 19:13:00,
2013-03-13 15:14:00,58.3,20.7,29.86,ENE,64,0.0,0.0,23,0.00,,---,0.00,VWS V14.01,2013-03-13 19:14:00,
2013-03-13 15:15:00,58.3,21.7,29.86,ENE,57,0.0,0.0,24,0.00,,---,0.00,VWS V14.01,2013-03-13 19:15:00,
2013-03-13 15:16:00,58.1,20.5,29.86,ENE,61,0.0,0.0,23,0.00,,---,0.00,VWS V14.01,2013-03-13 19:16:00,
2013-03-13 15:17:00,58.0,21.4,29.86,NE,34,0.0,0.0,24,0.00,,---,0.00,VWS V14.01,2013-03-13 19:17:00,
2013-03-13 15:18:00,57.8,21.3,29.86,East,90,0.0,0.0,24,0.00,,---,0.00,VWS V14.01,2013-03-13 19:18:00,
2013-03-13 15:19:00,57.5,21.0,29.86,NE,47,0.0,0.0,24,0.00,,---,0.00,VWS V14.01,2013-03-13 19:19:00,
2013-03-13 15:20:00,57.3,21.8,29.86,ENE,63,0.0,0.0,25,0.00,,---,0.00,VWS V14.01,2013-03-13 19:20:00,
2013-03-13 15:21:00,57.2,21.7,29.86,NE,45,0.0,0.0,25,0.00,,---,0.00,VWS V14.01,2013-03-13 19:21:00,
2013-03-13 15:22:00,57.0,20.6,29.86,East,80,0.0,0.0,24,0.00,,---,0.00,VWS V14.01,2013-03-13 19:22:00,
2013-03-13 15:23:00,56.9,21.5,29.86,NE,54,0.0,0.0,25,0.00,,---,0.00,VWS V14.01,2013-03-13 19:23:00,
2013-03-13 15:24:00,56.9,22.4,29.86,ENE,75,0.0,0.0,26,0.00,,---,0.00,VWS V14.01,2013-03-13 19:24:00,
2013-03-13 15:25:00,56.9,22.4,29.86,ENE,75,0.0,0.0,26,0.00,,---,0.00,VWS V14.01,2013-03-13 19:25:00,
2013-03-13 15:26:00,56.9,21.5,29.86,East,84,0.0,0.0,25,0.00,,---,0.00,VWS V14.01,2013-03-13 19:26:00,
2013-03-13 15:27:00,56.7,22.2,29.86,ENE,70,0.0,0.0,26,0.00,,---,0.00,VWS V14.01,2013-03-13 19:27:00,
2013-03-13 15:28:00,56.6,22.1,29.86,ENE,65,0.0,0.0,26,0.00,,---,0.00,VWS V14.01,2013-03-13 19:28:00,
2013-03-13 15:29:00,56.6,23.0,29.86,NE,34,0.0,0.0,27,0.00,,---,0.00,VWS V14.01,2013-03-13 19:29:00,
2013-03-13 15:30:00,56.5,22.9,29.86,ENE,71,0.0,0.0,27,0.00,,---,0.00,VWS V14.01,2013-03-13 19:30:00,
2013-03-13 15:31:00,56.3,22.8,29.86,ENE,73,0.0,0.0,27,0.00,,---,0.00,VWS V14.01,2013-03-13 19:31:00,
2013-03-13 15:32:00,56.2,22.7,29.86,NE,44,0.0,0.0,27,0.00,,---,0.00,VWS V14.01,2013-03-13 19:32:00,
2013-03-13 15:33:00,56.0,21.6,29.86,ENE,61,0.0,0.0,26,0.00,,---,0.00,VWS V14.01,2013-03-13 19:33:00,
2013-03-13 15:34:00,56.0,22.5,29.86,NE,44,0.0,0.0,27,0.00,,---,0.00,VWS V14.01,2013-03-13 19:34:00,
2013-03-13 15:35:00,55.9,21.5,29.86,NNE,17,0.0,0.0,26,0.00,,---,0.00,VWS V14.01,2013-03-13 19:35:00,
2013-03-13 15:36:00,55.9,21.5,29.86,ENE,59,0.0,0.0,26,0.00,,---,0.00,VWS V14.01,2013-03-13 19:36:00,
2013-03-13 15:37:00,56.0,21.6,29.86,ENE,59,0.0,0.0,26,0.00,,---,0.00,VWS V14.01,2013-03-13 19:37:00,
2013-03-13 15:38:00,56.0,22.5,29.86,East,86,0.0,0.0,27,0.00,,---,0.00,VWS V14.01,2013-03-13 19:38:00,
2013-03-13 15:39:00,56.2,21.8,29.86,NE,54,0.0,0.0,26,0.00,,---,0.00,VWS V14.01,2013-03-13 19:39:00,
2013-03-13 15:40:00,56.3,21.9,29.86,NE,56,0.0,0.0,26,0.00,,---,0.00,VWS V14.01,2013-03-13 19:40:00,
2013-03-13 15:41:00,56.5,22.9,29.86,ENE,68,0.0,0.0,27,0.00,,---,0.00,VWS V14.01,2013-03-13 19:41:00,
2013-03-13 15:42:00,56.5,22.0,29.86,ENE,71,0.0,0.0,26,0.00,,---,0.00,VWS V14.01,2013-03-13 19:42:00,
2013-03-13 15:43:00,56.6,22.1,29.86,ENE,61,0.0,0.0,26,0.00,,---,0.00,VWS V14.01,2013-03-13 19:43:00,
2013-03-13 15:44:00,56.7,22.2,29.86,ENE,66,0.0,0.0,26,0.00,,---,0.00,VWS V14.01,2013-03-13 19:44:00,
2013-03-13 15:45:00,56.7,22.2,29.86,ENE,69,0.0,0.0,26,0.00,,---,0.00,VWS V14.01,2013-03-13 19:45:00,
2013-03-13 15:46:00,56.7,21.3,29.86,ENE,68,0.0,0.0,25,0.00,,---,0.00,VWS V14.01,2013-03-13 19:46:00,
2013-03-13 15:47:00,56.7,21.3,29.86,ENE,71,0.0,0.0,25,0.00,,---,0.00,VWS V14.01,2013-03-13 19:47:00,
2013-03-13 15:48:00,56.9,22.4,29.86,NNE,26,0.0,0.0,26,0.00,,---,0.00,VWS V14.01,2013-03-13 19:48:00,
2013-03-13 15:49:00,56.9,22.4,29.86,NE,42,0.0,0.0,26,0.00,,---,0.00,VWS V14.01,2013-03-13 19:49:00,
2013-03-13 15:50:00,56.9,21.5,29.86,ENE,58,0.0,0.0,25,0.00,,---,0.00,VWS V14.01,2013-03-13 19:50:00,
2013-03-13 15:51:00,57.0,21.5,29.86,ENE,62,0.0,0.0,25,0.00,,---,0.00,VWS V14.01,2013-03-13 19:51:00,
2013-03-13 15:52:00,57.2,22.6,29.86,ENE,75,0.0,0.0,26,0.00,,---,0.00,VWS V14.01,2013-03-13 19:52:00,
2013-03-13 15:53:00,57.2,23.5,29.86,ENE,65,0.0,0.0,27,0.00,,---,0.00,VWS V14.01,2013-03-13 19:53:00,
2013-03-13 15:54:00,57.3,23.6,29.86,ENE,69,0.0,0.0,27,0.00,,---,0.00,VWS V14.01,2013-03-13 19:54:00,
2013-03-13 15:55:00,57.3,21.8,29.86,North,5,0.0,0.0,25,0.00,,---,0.00,VWS V14.01,2013-03-13 19:55:00,
2013-03-13 15:56:00,57.3,20.8,29.86,North,10,0.0,0.0,24,0.00,,---,0.00,VWS V14.01,2013-03-13 19:56:00,
2013-03-13 15:57:00,57.3,20.8,29.86,NE,36,0.0,0.0,24,0.00,,---,0.00,VWS V14.01,2013-03-13 19:57:00,
2013-03-13 15:58:00,57.3,20.8,29.86,North,360,0.0,0.0,24,0.00,,---,0.00,VWS V14.01,2013-03-13 19:58:00,
2013-03-13 15:59:00,57.3,20.8,29.86,NNE,28,0.0,0.0,24,0.00,,---,0.00,VWS V14.01,2013-03-13 19:59:00,
2013-03-13 16:00:00,57.3,21.8,29.86,NNE,13,0.0,0.0,25,0.00,,---,0.00,VWS V14.01,2013-03-13 20:00:00,
2013-03-13 16:01:00,57.2,21.7,29.86,NE,55,0.0,0.0,25,0.00,,---,0.00,VWS V14.01,2013-03-13 20:01:00,
2013-03-13 16:02:00,57.2,21.7,29.86,NE,35,0.0,0.0,25,0.00,,---,0.00,VWS V14.01,2013-03-13 20:02:00,
2013-03-13 16:03:00,57.2,21.7,29.86,NE,42,0.0,0.0,25,0.00,,---,0.00,VWS V14.01,2013-03-13 20:03:00,
2013-03-13 16:04:00,57.0,21.5,29.86,NE,50,0.0,0.0,25,0.00,,---,0.00,VWS V14.01,2013-03-13 20:04:00,
2013-03-13 16:05:00,57.0,21.5,29.86,NNE,29,0.0,0.0,25,0.00,,---,0.00,VWS V14.01,2013-03-13 20:05:00,
2013-03-13 16:06:00,57.0,21.5,29.86,NNE,33,0.0,0.0,25,0.00,,---,0.00,VWS V14.01,2013-03-13 20:06:00,
2013-03-13 16:07:00,56.9,21.5,29.86,NE,40,0.0,0.0,25,0.00,,---,0.00,VWS V14.01,2013-03-13 20:07:00,
2013-03-13 16:08:00,56.9,21.5,29.86,ENE,75,0.0,0.0,25,0.00,,---,0.00,VWS V14.01,2013-03-13 20:08:00,
2013-03-13 16:09:00,56.9,21.5,29.86,NE,47,0.0,0.0,25,0.00,,---,0.00,VWS V14.01,2013-03-13 20:09:00,
2013-03-13 16:10:00,56.9,22.4,29.86,ENE,61,0.0,0.0,26,0.00,,---,0.00,VWS V14.01,2013-03-13 20:10:00,
2013-03-13 16:11:00,57.0,22.5,29.86,ENE,61,0.0,0.0,26,0.00,,---,0.00,VWS V14.01,2013-03-13 20:11:00,
2013-03-13 16:12:00,57.0,22.5,29.86,East,95,0.0,0.0,26,0.00,,---,0.00,VWS V14.01,2013-03-13 20:12:00,
2013-03-13 16:13:00,57.0,22.5,29.86,ENE,63,0.0,0.0,26,0.00,,---,0.00,VWS V14.01,2013-03-13 20:13:00,
2013-03-13 16:14:00,57.0,22.5,29.86,ENE,58,0.0,0.0,26,0.00,,---,0.00,VWS V14.01,2013-03-13 20:14:00,
2013-03-13 16:15:00,57.0,22.5,29.86,ENE,58,0.0,0.0,26,0.00,,---,0.00,VWS V14.01,2013-03-13 20:15:00,
2013-03-13 16:16:00,56.9,22.4,29.86,NE,40,0.0,0.0,26,0.00,,---,0.00,VWS V14.01,2013-03-13 20:16:00,
2013-03-13 16:17:00,56.7,22.2,29.86,ENE,63,0.0,0.0,26,0.00,,---,0.00,VWS V14.01,2013-03-13 20:17:00,
2013-03-13 16:18:00,56.6,22.1,29.86,East,91,0.0,0.0,26,0.00,,---,0.00,VWS V14.01,2013-03-13 20:18:00,
2013-03-13 16:19:00,56.6,23.0,29.86,ENE,74,0.0,0.0,27,0.00,,---,0.00,VWS V14.01,2013-03-13 20:19:00,
2013-03-13 16:20:00,56.5,22.9,29.86,ENE,73,0.0,0.0,27,0.00,,---,0.00,VWS V14.01,2013-03-13 20:20:00,
2013-03-13 16:21:00,56.5,22.9,29.86,ENE,62,0.0,0.0,27,0.00,,---,0.00,VWS V14.01,2013-03-13 20:21:00,
2013-03-13 16:22:00,56.5,22.9,29.86,ENE,65,0.0,0.0,27,0.00,,---,0.00,VWS V14.01,2013-03-13 20:22:00,
2013-03-13 16:23:00,56.5,22.9,29.86,ENE,65,0.0,0.0,27,0.00,,---,0.00,VWS V14.01,2013-03-13 20:23:00,
2013-03-13 16:24:00,56.5,23.8,29.86,ENE,65,0.0,0.0,28,0.00,,---,0.00,VWS V14.01,2013-03-13 20:24:00,
2013-03-13 16:25:00,56.6,23.9,29.86,ENE,74,0.0,0.0,28,0.00,,---,0.00,VWS V14.01,2013-03-13 20:25:00,
2013-03-13 16:26:00,56.7,22.2,29.86,ENE,74,0.0,0.0,26,0.00,,---,0.00,VWS V14.01,2013-03-13 20:26:00,
2013-03-13 16:27:00,56.7,23.1,29.86,ENE,71,0.0,0.0,27,0.00,,---,0.00,VWS V14.01,2013-03-13 20:27:00,
2013-03-13 16:28:00,56.9,23.3,29.86,East,90,0.0,0.0,27,0.00,,---,0.00,VWS V14.01,2013-03-13 20:28:00,
2013-03-13 16:29:00,56.9,23.3,29.86,NE,55,0.0,0.0,27,0.00,,---,0.00,VWS V14.01,2013-03-13 20:29:00,
2013-03-13 16:30:00,56.9,22.4,29.87,ENE,63,0.0,0.0,26,0.00,,---,0.00,VWS V14.01,2013-03-13 20:30:00,
2013-03-13 16:31:00,56.9,21.5,29.87,NE,49,0.0,0.0,25,0.00,,---,0.00,VWS V14.01,2013-03-13 20:31:00,
2013-03-13 16:32:00,56.9,21.5,29.87,NE,40,0.0,0.0,25,0.00,,---,0.00,VWS V14.01,2013-03-13 20:32:00,
2013-03-13 16:33:00,56.9,22.4,29.87,NNE,26,0.0,0.0,26,0.00,,---,0.00,VWS V14.01,2013-03-13 20:33:00,
2013-03-13 16:34:00,56.7,22.2,29.87,NE,50,0.0,0.0,26,0.00,,---,0.00,VWS V14.01,2013-03-13 20:34:00,
2013-03-13 16:35:00,56.7,22.2,29.87,NE,36,0.0,0.0,26,0.00,,---,0.00,VWS V14.01,2013-03-13 20:35:00,
2013-03-13 16:36:00,56.7,22.2,29.87,NNE,22,0.0,0.0,26,0.00,,---,0.00,VWS V14.01,2013-03-13 20:36:00,
2013-03-13 16:37:00,56.6,22.1,29.87,North,10,0.0,0.0,26,0.00,,---,0.00,VWS V14.01,2013-03-13 20:37:00,
2013-03-13 16:38:00,56.6,22.1,29.87,NNE,19,0.0,0.0,26,0.00,,---,0.00,VWS V14.01,2013-03-13 20:38:00,
2013-03-13 16:39:00,56.6,22.1,29.87,ENE,70,0.0,0.0,26,0.00,,---,0.00,VWS V14.01,2013-03-13 20:39:00,
2013-03-13 16:40:00,56.6,22.1,29.87,NE,49,0.0,0.0,26,0.00,,---,0.00,VWS V14.01,2013-03-13 20:40:00,
2013-03-13 16:41:00,56.6,22.1,29.87,East,88,0.0,0.0,26,0.00,,---,0.00,VWS V14.01,2013-03-13 20:41:00,
2013-03-13 16:42:00,56.6,22.1,29.87,North,10,0.0,0.0,26,0.00,,---,0.00,VWS V14.01,2013-03-13 20:42:00,
2013-03-13 16:43:00,56.6,22.1,29.87,North,5,0.0,0.0,26,0.00,,---,0.00,VWS V14.01,2013-03-13 20:43:00,
2013-03-13 16:44:00,56.6,22.1,29.87,ENE,63,0.0,0.0,26,0.00,,---,0.00,VWS V14.01,2013-03-13 20:44:00,
2013-03-13 16:45:00,56.7,22.2,29.86,ENE,68,0.0,0.0,26,0.00,,---,0.00,VWS V14.01,2013-03-13 20:45:00,
2013-03-13 16:46:00,56.7,22.2,29.86,East,91,0.0,0.0,26,0.00,,---,0.00,VWS V14.01,2013-03-13 20:46:00,
2013-03-13 16:47:00,56.7,22.2,29.86,ENE,73,0.0,0.0,26,0.00,,---,0.00,VWS V14.01,2013-03-13 20:47:00,
2013-03-13 16:48:00,56.7,22.2,29.86,ENE,70,0.0,0.0,26,0.00,,---,0.00,VWS V14.01,2013-03-13 20:48:00,
2013-03-13 16:49:00,56.7,22.2,29.86,NNE,31,0.0,0.0,26,0.00,,---,0.00,VWS V14.01,2013-03-13 20:49:00,
2013-03-13 16:50:00,56.9,22.4,29.86,NE,38,0.0,0.0,26,0.00,,---,0.00,VWS V14.01,2013-03-13 20:50:00,
2013-03-13 16:51:00,56.9,22.4,29.86,East,93,0.0,0.0,26,0.00,,---,0.00,VWS V14.01,2013-03-13 20:51:00,
2013-03-13 16:52:00,57.0,23.4,29.86,NE,51,0.0,0.0,27,0.00,,---,0.00,VWS V14.01,2013-03-13 20:52:00,
2013-03-13 16:53:00,56.9,21.5,29.86,NE,54,0.0,0.0,25,0.00,,---,0.00,VWS V14.01,2013-03-13 20:53:00,
2013-03-13 16:54:00,56.9,21.5,29.86,NE,47,0.0,0.0,25,0.00,,---,0.00,VWS V14.01,2013-03-13 20:54:00,
2013-03-13 16:55:00,56.7,21.3,29.86,ENE,75,0.0,0.0,25,0.00,,---,0.00,VWS V14.01,2013-03-13 20:55:00,
2013-03-13 16:56:00,56.7,21.3,29.86,ENE,65,0.0,0.0,25,0.00,,---,0.00,VWS V14.01,2013-03-13 20:56:00,
2013-03-13 16:57:00,56.7,21.3,29.86,NE,53,0.0,0.0,25,0.00,,---,0.00,VWS V14.01,2013-03-13 20:57:00,
2013-03-13 16:58:00,56.6,21.2,29.86,NE,53,0.0,0.0,25,0.00,,---,0.00,VWS V14.01,2013-03-13 20:58:00,
2013-03-13 16:59:00,56.6,22.1,29.86,NE,52,0.0,0.0,26,0.00,,---,0.00,VWS V14.01,2013-03-13 20:59:00,
2013-03-13 17:00:00,56.6,22.1,29.87,East,92,0.0,0.0,26,0.00,,---,0.00,VWS V14.01,2013-03-13 21:00:00,
2013-03-13 17:01:00,56.5,22.0,29.87,NE,43,0.0,0.0,26,0.00,,---,0.00,VWS V14.01,2013-03-13 21:01:00,
2013-03-13 17:02:00,56.3,21.9,29.87,ENE,69,0.0,0.0,26,0.00,,---,0.00,VWS V14.01,2013-03-13 21:02:00,
2013-03-13 17:03:00,56.3,21.9,29.87,ENE,69,0.0,0.0,26,0.00,,---,0.00,VWS V14.01,2013-03-13 21:03:00,
2013-03-13 17:04:00,56.2,22.7,29.87,NE,45,0.0,0.0,27,0.00,,---,0.00,VWS V14.01,2013-03-13 21:04:00,
2013-03-13 17:05:00,56.2,22.7,29.87,NE,45,0.0,0.0,27,0.00,,---,0.00,VWS V14.01,2013-03-13 21:05:00,
2013-03-13 17:06:00,56.2,22.7,29.87,NE,45,0.0,0.0,27,0.00,,---,0.00,VWS V14.01,2013-03-13 21:06:00,
2013-03-13 17:07:00,56.3,23.6,29.87,NE,45,0.0,0.0,28,0.00,,---,0.00,VWS V14.01,2013-03-13 21:07:00,
2013-03-13 17:08:00,56.3,22.8,29.87,ENE,63,0.0,0.0,27,0.00,,---,0.00,VWS V14.01,2013-03-13 21:08:00,
2013-03-13 17:09:00,56.3,22.8,29.87,ENE,74,0.0,0.0,27,0.00,,---,0.00,VWS V14.01,2013-03-13 21:09:00,
2013-03-13 17:10:00,56.3,22.8,29.87,NE,51,0.0,0.0,27,0.00,,---,0.00,VWS V14.01,2013-03-13 21:10:00,
2013-03-13 17:11:00,56.3,22.8,29.87,NE,55,0.0,0.0,27,0.00,,---,0.00,VWS V14.01,2013-03-13 21:11:00,
2013-03-13 17:12:00,56.3,21.9,29.87,ENE,72,0.0,0.0,26,0.00,,---,0.00,VWS V14.01,2013-03-13 21:12:00,
2013-03-13 17:13:00,56.2,21.8,29.87,ENE,63,0.0,0.0,26,0.00,,---,0.00,VWS V14.01,2013-03-13 21:13:00,
2013-03-13 17:14:00,56.2,21.8,29.87,East,86,0.0,0.0,26,0.00,,---,0.00,VWS V14.01,2013-03-13 21:14:00,
2013-03-13 17:15:00,56.2,22.7,29.88,East,87,0.0,0.0,27,0.00,,---,0.00,VWS V14.01,2013-03-13 21:15:00,
2013-03-13 17:16:00,56.0,22.5,29.88,East,86,0.0,0.0,27,0.00,,---,0.00,VWS V14.01,2013-03-13 21:16:00,
2013-03-13 17:17:00,56.0,22.5,29.88,East,86,0.0,0.0,27,0.00,,---,0.00,VWS V14.01,2013-03-13 21:17:00,
2013-03-13 17:18:00,56.0,22.5,29.88,East,86,0.0,0.0,27,0.00,,---,0.00,VWS V14.01,2013-03-13 21:18:00,
2013-03-13 17:19:00,56.0,22.5,29.88,East,86,0.0,0.0,27,0.00,,---,0.00,VWS V14.01,2013-03-13 21:19:00,
2013-03-13 17:20:00,56.0,22.5,29.88,ENE,77,0.0,0.0,27,0.00,,---,0.00,VWS V14.01,2013-03-13 21:20:00,
2013-03-13 17:21:00,55.9,22.4,29.88,NE,50,0.0,0.0,27,0.00,,---,0.00,VWS V14.01,2013-03-13 21:21:00,
2013-03-13 17:22:00,55.9,21.5,29.88,NE,51,0.0,0.0,26,0.00,,---,0.00,VWS V14.01,2013-03-13 21:22:00,
2013-03-13 17:23:00,55.7,21.4,29.88,East,85,0.0,0.0,26,0.00,,---,0.00,VWS V14.01,2013-03-13 21:23:00,
2013-03-13 17:24:00,55.6,21.3,29.88,ENE,57,0.0,0.0,26,0.00,,---,0.00,VWS V14.01,2013-03-13 21:24:00,
2013-03-13 17:25:00,55.6,21.3,29.88,NNE,25,0.0,0.0,26,0.00,,---,0.00,VWS V14.01,2013-03-13 21:25:00,
2013-03-13 17:26:00,55.6,21.3,29.88,ENE,67,0.0,0.0,26,0.00,,---,0.00,VWS V14.01,2013-03-13 21:26:00,
2013-03-13 17:27:00,55.4,22.0,29.88,East,82,0.0,0.0,27,0.00,,---,0.00,VWS V14.01,2013-03-13 21:27:00,
2013-03-13 17:28:00,55.4,21.1,29.88,East,92,0.0,0.0,26,0.00,,---,0.00,VWS V14.01,2013-03-13 21:28:00,
2013-03-13 17:29:00,55.3,21.9,29.88,NE,49,0.0,0.0,27,0.00,,---,0.00,VWS V14.01,2013-03-13 21:29:00,
2013-03-13 17:30:00,55.1,21.7,29.88,NE,43,0.0,0.0,27,0.00,,---,0.00,VWS V14.01,2013-03-13 21:30:00,
2013-03-13 17:31:00,55.1,21.7,29.88,NE,53,0.0,0.0,27,0.00,,---,0.00,VWS V14.01,2013-03-13 21:31:00,
2013-03-13 17:32:00,55.1,21.7,29.88,ENE,59,0.0,0.0,27,0.00,,---,0.00,VWS V14.01,2013-03-13 21:32:00,
2013-03-13 17:33:00,55.1,21.7,29.88,East,88,0.0,0.0,27,0.00,,---,0.00,VWS V14.01,2013-03-13 21:33:00,
2013-03-13 17:34:00,55.1,20.9,29.88,ESE,104,0.0,0.0,26,0.00,,---,0.00,VWS V14.01,2013-03-13 21:34:00,
2013-03-13 17:35:00,55.1,20.9,29.88,East,96,0.0,0.0,26,0.00,,---,0.00,VWS V14.01,2013-03-13 21:35:00,
2013-03-13 17:36:00,55.1,21.7,29.88,ENE,71,0.0,0.0,27,0.00,,---,0.00,VWS V14.01,2013-03-13 21:36:00,
2013-03-13 17:37:00,55.1,21.7,29.88,ENE,60,0.0,0.0,27,0.00,,---,0.00,VWS V14.01,2013-03-13 21:37:00,
2013-03-13 17:38:00,55.1,21.7,29.88,ENE,59,0.0,0.0,27,0.00,,---,0.00,VWS V14.01,2013-03-13 21:38:00,
2013-03-13 17:39:00,55.1,20.9,29.88,ENE,71,0.0,0.0,26,0.00,,---,0.00,VWS V14.01,2013-03-13 21:39:00,
2013-03-13 17:40:00,55.1,20.9,29.88,NE,54,0.0,0.0,26,0.00,,---,0.00,VWS V14.01,2013-03-13 21:40:00,
2013-03-13 17:41:00,55.1,20.9,29.88,NE,51,0.0,0.0,26,0.00,,---,0.00,VWS V14.01,2013-03-13 21:41:00,
2013-03-13 17:42:00,55.1,20.9,29.88,ENE,72,0.0,0.0,26,0.00,,---,0.00,VWS V14.01,2013-03-13 21:42:00,
2013-03-13 17:43:00,55.0,20.8,29.88,ENE,75,0.0,0.0,26,0.00,,---,0.00,VWS V14.01,2013-03-13 21:43:00,
2013-03-13 17:44:00,55.0,20.8,29.88,East,81,0.0,0.0,26,0.00,,---,0.00,VWS V14.01,2013-03-13 21:44:00,
2013-03-13 17:45:00,55.0,19.8,29.89,NNE,19,0.0,0.0,25,0.00,,---,0.00,VWS V14.01,2013-03-13 21:45:00,
2013-03-13 17:46:00,54.8,19.7,29.89,NE,49,0.0,0.0,25,0.00,,---,0.00,VWS V14.01,2013-03-13 21:46:00,
2013-03-13 17:47:00,54.8,19.7,29.89,NE,43,0.0,0.0,25,0.00,,---,0.00,VWS V14.01,2013-03-13 21:47:00,
2013-03-13 17:48:00,54.8,20.6,29.89,East,80,0.0,0.0,26,0.00,,---,0.00,VWS V14.01,2013-03-13 21:48:00,
2013-03-13 17:49:00,54.8,19.7,29.89,ENE,71,0.0,0.0,25,0.00,,---,0.00,VWS V14.01,2013-03-13 21:49:00,
2013-03-13 17:50:00,54.8,20.6,29.89,NE,54,0.0,0.0,26,0.00,,---,0.00,VWS V14.01,2013-03-13 21:50:00,
2013-03-13 17:51:00,54.8,20.6,29.89,ENE,59,0.0,0.0,26,0.00,,---,0.00,VWS V14.01,2013-03-13 21:51:00,
2013-03-13 17:52:00,54.8,19.7,29.89,ENE,57,0.0,0.0,25,0.00,,---,0.00,VWS V14.01,2013-03-13 21:52:00,
2013-03-13 17:53:00,54.8,19.7,29.89,ENE,60,0.0,0.0,25,0.00,,---,0.00,VWS V14.01,2013-03-13 21:53:00,
2013-03-13 17:54:00,54.7,20.5,29.89,ENE,64,0.0,0.0,26,0.00,,---,0.00,VWS V14.01,2013-03-13 21:54:00,
2013-03-13 17:55:00,54.7,20.5,29.89,ENE,63,0.0,0.0,26,0.00,,---,0.00,VWS V14.01,2013-03-13 21:55:00,
2013-03-13 17:56:00,54.7,20.5,29.89,NE,49,0.0,0.0,26,0.00,,---,0.00,VWS V14.01,2013-03-13 21:56:00,
2013-03-13 17:57:00,54.7,20.5,29.89,NE,49,0.0,0.0,26,0.00,,---,0.00,VWS V14.01,2013-03-13 21:57:00,
2013-03-13 17:58:00,54.7,20.5,29.89,NE,53,0.0,0.0,26,0.00,,---,0.00,VWS V14.01,2013-03-13 21:58:00,
2013-03-13 17:59:00,54.8,20.6,29.89,NE,44,0.0,0.0,26,0.00,,---,0.00,VWS V14.01,2013-03-13 21:59:00,
2013-03-13 18:00:00,54.8,20.6,29.90,SE,127,0.0,0.0,26,0.00,,---,0.00,VWS V14.01,2013-03-13 22:00:00,
2013-03-13 18:01:00,54.8,20.6,29.90,ENE,76,0.0,0.0,26,0.00,,---,0.00,VWS V14.01,2013-03-13 22:01:00,
2013-03-13 18:02:00,54.8,20.6,29.90,East,88,0.0,0.0,26,0.00,,---,0.00,VWS V14.01,2013-03-13 22:02:00,
2013-03-13 18:03:00,54.8,20.6,29.90,NE,43,0.0,0.0,26,0.00,,---,0.00,VWS V14.01,2013-03-13 22:03:00,
2013-03-13 18:04:00,54.8,20.6,29.90,ENE,67,0.0,0.0,26,0.00,,---,0.00,VWS V14.01,2013-03-13 22:04:00,
2013-03-13 18:05:00,54.8,18.7,29.90,NE,46,0.0,0.0,24,0.00,,---,0.00,VWS V14.01,2013-03-13 22:05:00,
2013-03-13 18:06:00,54.8,18.7,29.90,NE,49,0.0,0.0,24,0.00,,---,0.00,VWS V14.01,2013-03-13 22:06:00,
2013-03-13 18:07:00,54.7,17.6,29.90,NE,38,0.0,0.0,23,0.00,,---,0.00,VWS V14.01,2013-03-13 22:07:00,
2013-03-13 18:08:00,54.7,17.6,29.90,East,90,0.0,0.0,23,0.00,,---,0.00,VWS V14.01,2013-03-13 22:08:00,
2013-03-13 18:09:00,54.7,18.6,29.90,NE,51,0.0,0.0,24,0.00,,---,0.00,VWS V14.01,2013-03-13 22:09:00,
2013-03-13 18:10:00,54.7,18.6,29.90,ENE,76,0.0,0.0,24,0.00,,---,0.00,VWS V14.01,2013-03-13 22:10:00,
2013-03-13 18:11:00,54.5,18.5,29.90,ENE,65,0.0,0.0,24,0.00,,---,0.00,VWS V14.01,2013-03-13 22:11:00,
2013-03-13 18:12:00,54.5,18.5,29.90,ENE,65,0.0,0.0,24,0.00,,---,0.00,VWS V14.01,2013-03-13 22:12:00,
2013-03-13 18:13:00,54.4,18.4,29.90,ENE,57,0.0,0.0,24,0.00,,---,0.00,VWS V14.01,2013-03-13 22:13:00,
2013-03-13 18:14:00,54.4,18.4,29.90,NNE,24,0.0,0.0,24,0.00,,---,0.00,VWS V14.01,2013-03-13 22:14:00,
2013-03-13 18:15:00,54.4,18.4,29.90,East,92,0.0,0.0,24,0.00,,---,0.00,VWS V14.01,2013-03-13 22:15:00,
2013-03-13 18:16:00,54.4,18.4,29.90,ENE,71,0.0,0.0,24,0.00,,---,0.00,VWS V14.01,2013-03-13 22:16:00,
2013-03-13 18:17:00,54.2,18.2,29.90,ENE,76,0.0,0.0,24,0.00,,---,0.00,VWS V14.01,2013-03-13 22:17:00,
2013-03-13 18:18:00,54.2,18.2,29.90,ENE,72,0.0,0.0,24,0.00,,---,0.00,VWS V14.01,2013-03-13 22:18:00,
2013-03-13 18:19:00,54.1,18.1,29.90,ENE,67,0.0,0.0,24,0.00,,---,0.00,VWS V14.01,2013-03-13 22:19:00,
2013-03-13 18:20:00,54.1,17.1,29.90,ENE,76,0.0,0.0,23,0.00,,---,0.00,VWS V14.01,2013-03-13 22:20:00,
2013-03-13 18:21:00,54.1,18.1,29.90,ENE,71,0.0,0.0,24,0.00,,---,0.00,VWS V14.01,2013-03-13 22:21:00,
2013-03-13 18:22:00,54.1,18.1,29.90,NE,39,0.0,0.0,24,0.00,,---,0.00,VWS V14.01,2013-03-13 22:22:00,
2013-03-13 18:23:00,53.9,18.9,29.90,ENE,60,0.0,0.0,25,0.00,,---,0.00,VWS V14.01,2013-03-13 22:23:00,
2013-03-13 18:24:00,53.9,18.9,29.90,ENE,76,0.0,0.0,25,0.00,,---,0.00,VWS V14.01,2013-03-13 22:24:00,
2013-03-13 18:25:00,53.8,18.8,29.90,NE,35,0.0,0.0,25,0.00,,---,0.00,VWS V14.01,2013-03-13 22:25:00,
2013-03-13 18:26:00,53.8,19.7,29.90,East,84,0.0,0.0,26,0.00,,---,0.00,VWS V14.01,2013-03-13 22:26:00,
2013-03-13 18:27:00,53.6,19.6,29.90,NE,42,0.0,0.0,26,0.00,,---,0.00,VWS V14.01,2013-03-13 22:27:00,
2013-03-13 18:28:00,53.6,20.5,29.90,ENE,64,0.0,0.0,27,0.00,,---,0.00,VWS V14.01,2013-03-13 22:28:00,
2013-03-13 18:29:00,53.5,20.4,29.90,ENE,65,0.0,0.0,27,0.00,,---,0.00,VWS V14.01,2013-03-13 22:29:00,
2013-03-13 18:30:00,53.5,20.4,29.91,ENE,59,0.0,0.0,27,0.00,,---,0.00,VWS V14.01,2013-03-13 22:30:00,
2013-03-13 18:31:00,53.3,20.2,29.91,ENE,63,0.0,0.0,27,0.00,,---,0.00,VWS V14.01,2013-03-13 22:31:00,
2013-03-13 18:32:00,53.3,20.2,29.91,ENE,64,0.0,0.0,27,0.00,,---,0.00,VWS V14.01,2013-03-13 22:32:00,
2013-03-13 18:33:00,53.2,21.0,29.91,ENE,67,0.0,0.0,28,0.00,,---,0.00,VWS V14.01,2013-03-13 22:33:00,
2013-03-13 18:34:00,53.2,21.0,29.91,ENE,71,0.0,0.0,28,0.00,,---,0.00,VWS V14.01,2013-03-13 22:34:00,
2013-03-13 18:35:00,53.1,20.0,29.91,ENE,74,0.0,0.0,27,0.00,,---,0.00,VWS V14.01,2013-03-13 22:35:00,
2013-03-13 18:36:00,53.1,20.9,29.91,ENE,74,0.0,0.0,28,0.00,,---,0.00,VWS V14.01,2013-03-13 22:36:00,
2013-03-13 18:37:00,52.9,20.7,29.91,ENE,72,0.0,0.0,28,0.00,,---,0.00,VWS V14.01,2013-03-13 22:37:00,
2013-03-13 18:38:00,52.9,20.7,29.91,East,101,0.0,0.0,28,0.00,,---,0.00,VWS V14.01,2013-03-13 22:38:00,
2013-03-13 18:39:00,52.8,20.6,29.91,East,88,0.0,0.0,28,0.00,,---,0.00,VWS V14.01,2013-03-13 22:39:00,
2013-03-13 18:40:00,52.8,20.6,29.91,ENE,73,0.0,0.0,28,0.00,,---,0.00,VWS V14.01,2013-03-13 22:40:00,
2013-03-13 18:41:00,52.6,20.4,29.91,East,87,0.0,0.0,28,0.00,,---,0.00,VWS V14.01,2013-03-13 22:41:00,
2013-03-13 18:42:00,52.6,20.4,29.91,East,84,0.0,0.0,28,0.00,,---,0.00,VWS V14.01,2013-03-13 22:42:00,
2013-03-13 18:43:00,52.5,20.4,29.91,NE,49,0.0,0.0,28,0.00,,---,0.00,VWS V14.01,2013-03-13 22:43:00,
2013-03-13 18:44:00,52.3,20.2,29.91,ENE,69,0.0,0.0,28,0.00,,---,0.00,VWS V14.01,2013-03-13 22:44:00,
2013-03-13 18:45:00,52.3,19.3,29.92,East,79,0.0,0.0,27,0.00,,---,0.00,VWS V14.01,2013-03-13 22:45:00,
2013-03-13 18:46:00,52.2,20.1,29.92,ENE,69,0.0,0.0,28,0.00,,---,0.00,VWS V14.01,2013-03-13 22:46:00,
2013-03-13 18:47:00,52.2,20.1,29.92,East,83,0.0,0.0,28,0.00,,---,0.00,VWS V14.01,2013-03-13 22:47:00,
2013-03-13 18:48:00,52.0,20.8,29.92,NE,53,0.0,0.0,29,0.00,,---,0.00,VWS V14.01,2013-03-13 22:48:00,
2013-03-13 18:49:00,51.9,20.7,29.92,ENE,76,0.0,0.0,29,0.00,,---,0.00,VWS V14.01,2013-03-13 22:49:00,
2013-03-13 18:50:00,51.7,20.5,29.92,NE,39,0.0,0.0,29,0.00,,---,0.00,VWS V14.01,2013-03-13 22:50:00,
2013-03-13 18:51:00,51.7,21.3,29.92,East,101,0.0,0.0,30,0.00,,---,0.00,VWS V14.01,2013-03-13 22:51:00,
2013-03-13 18:52:00,51.6,21.2,29.92,SE,144,0.0,0.0,30,0.00,,---,0.00,VWS V14.01,2013-03-13 22:52:00,
2013-03-13 18:53:00,51.4,21.8,29.92,ENE,74,0.0,0.0,31,0.00,,---,0.00,VWS V14.01,2013-03-13 22:53:00,
2013-03-13 18:54:00,51.4,21.8,29.92,ENE,74,0.0,0.0,31,0.00,,---,0.00,VWS V14.01,2013-03-13 22:54:00,
2013-03-13 18:55:00,51.3,21.7,29.92,ENE,74,0.0,0.0,31,0.00,,---,0.00,VWS V14.01,2013-03-13 22:55:00,
2013-03-13 18:56:00,51.3,21.7,29.92,ENE,77,0.0,0.0,31,0.00,,---,0.00,VWS V14.01,2013-03-13 22:56:00,
2013-03-13 18:57:00,51.1,21.5,29.92,ENE,76,0.0,0.0,31,0.00,,---,0.00,VWS V14.01,2013-03-13 22:57:00,
2013-03-13 18:58:00,51.1,21.5,29.92,NE,53,0.0,0.0,31,0.00,,---,0.00,VWS V14.01,2013-03-13 22:58:00,
2013-03-13 18:59:00,51.0,22.2,29.92,ENE,75,0.0,0.0,32,0.00,,---,0.00,VWS V14.01,2013-03-13 22:59:00,
2013-03-13 19:00:00,51.0,22.9,29.93,ENE,75,0.0,0.0,33,0.00,,---,0.00,VWS V14.01,2013-03-13 23:00:00,
2013-03-13 19:01:00,50.8,22.0,29.93,ENE,78,0.0,0.0,32,0.00,,---,0.00,VWS V14.01,2013-03-13 23:01:00,
2013-03-13 19:02:00,50.8,22.0,29.93,ENE,76,0.0,0.0,32,0.00,,---,0.00,VWS V14.01,2013-03-13 23:02:00,
2013-03-13 19:03:00,50.7,22.7,29.93,East,96,0.0,0.0,33,0.00,,---,0.00,VWS V14.01,2013-03-13 23:03:00,
2013-03-13 19:04:00,50.7,22.7,29.93,ENE,69,0.0,0.0,33,0.00,,---,0.00,VWS V14.01,2013-03-13 23:04:00,
2013-03-13 19:05:00,50.5,23.2,29.93,NE,55,0.0,0.0,34,0.00,,---,0.00,VWS V14.01,2013-03-13 23:05:00,
2013-03-13 19:06:00,50.5,22.5,29.93,ENE,65,0.0,0.0,33,0.00,,---,0.00,VWS V14.01,2013-03-13 23:06:00,
2013-03-13 19:07:00,50.4,22.4,29.93,East,91,0.0,0.0,33,0.00,,---,0.00,VWS V14.01,2013-03-13 23:07:00,
2013-03-13 19:08:00,50.4,23.1,29.93,ENE,78,0.0,0.0,34,0.00,,---,0.00,VWS V14.01,2013-03-13 23:08:00,
2013-03-13 19:09:00,50.4,23.1,29.93,ENE,69,0.0,0.0,34,0.00,,---,0.00,VWS V14.01,2013-03-13 23:09:00,
2013-03-13 19:10:00,50.2,22.9,29.93,ENE,60,0.0,0.0,34,0.00,,---,0.00,VWS V14.01,2013-03-13 23:10:00,
2013-03-13 19:11:00,50.2,22.2,29.93,NE,46,0.0,0.0,33,0.00,,---,0.00,VWS V14.01,2013-03-13 23:11:00,
2013-03-13 19:12:00,50.1,22.1,29.93,ENE,65,0.0,0.0,33,0.00,,---,0.00,VWS V14.01,2013-03-13 23:12:00,
2013-03-13 19:13:00,50.1,22.1,29.93,ENE,69,0.0,0.0,33,0.00,,---,0.00,VWS V14.01,2013-03-13 23:13:00,
2013-03-13 19:14:00,50.1,22.8,29.93,ENE,72,0.0,0.0,34,0.00,,---,0.00,VWS V14.01,2013-03-13 23:14:00,
2013-03-13 19:15:00,49.9,22.7,29.93,ENE,78,0.0,0.0,34,0.00,,---,0.00,VWS V14.01,2013-03-13 23:15:00,
2013-03-13 19:16:00,49.9,22.7,29.93,East,84,0.0,0.0,34,0.00,,---,0.00,VWS V14.01,2013-03-13 23:16:00,
2013-03-13 19:17:00,49.8,22.6,29.93,ENE,65,0.0,0.0,34,0.00,,---,0.00,VWS V14.01,2013-03-13 23:17:00,
2013-03-13 19:18:00,49.8,21.9,29.93,ENE,77,0.0,0.0,33,0.00,,---,0.00,VWS V14.01,2013-03-13 23:18:00,
2013-03-13 19:19:00,49.8,21.9,29.93,East,91,0.0,0.0,33,0.00,,---,0.00,VWS V14.01,2013-03-13 23:19:00,
2013-03-13 19:20:00,49.6,22.4,29.93,East,91,0.0,0.0,34,0.00,,---,0.00,VWS V14.01,2013-03-13 23:20:00,
2013-03-13 19:21:00,49.6,23.1,29.93,East,90,0.0,0.0,35,0.00,,---,0.00,VWS V14.01,2013-03-13 23:21:00,
2013-03-13 19:22:00,49.6,23.1,29.93,ENE,70,0.0,0.0,35,0.00,,---,0.00,VWS V14.01,2013-03-13 23:22:00,
2013-03-13 19:23:00,49.5,23.0,29.93,ENE,71,0.0,0.0,35,0.00,,---,0.00,VWS V14.01,2013-03-13 23:23:00,
2013-03-13 19:24:00,49.5,23.0,29.93,ENE,71,0.0,0.0,35,0.00,,---,0.00,VWS V14.01,2013-03-13 23:24:00,
2013-03-13 19:25:00,49.4,22.9,29.93,ENE,70,0.0,0.0,35,0.00,,---,0.00,VWS V14.01,2013-03-13 23:25:00,
2013-03-13 19:26:00,49.4,22.9,29.93,ENE,70,0.0,0.0,35,0.00,,---,0.00,VWS V14.01,2013-03-13 23:26:00,
2013-03-13 19:27:00,49.4,22.9,29.93,ENE,70,0.0,0.0,35,0.00,,---,0.00,VWS V14.01,2013-03-13 23:27:00,
2013-03-13 19:28:00,49.2,22.7,29.93,ENE,74,0.0,0.0,35,0.00,,---,0.00,VWS V14.01,2013-03-13 23:28:00,
2013-03-13 19:29:00,49.2,22.7,29.93,East,96,0.0,0.0,35,0.00,,---,0.00,VWS V14.01,2013-03-13 23:29:00,
2013-03-13 19:30:00,49.1,22.6,29.94,ENE,70,0.0,0.0,35,0.00,,---,0.00,VWS V14.01,2013-03-13 23:30:00,
2013-03-13 19:31:00,49.1,22.6,29.94,ENE,70,0.0,0.0,35,0.00,,---,0.00,VWS V14.01,2013-03-13 23:31:00,
2013-03-13 19:32:00,49.1,22.6,29.94,ENE,67,0.0,0.0,35,0.00,,---,0.00,VWS V14.01,2013-03-13 23:32:00,
2013-03-13 19:33:00,48.9,23.1,29.94,ENE,67,0.0,0.0,36,0.00,,---,0.00,VWS V14.01,2013-03-13 23:33:00,
2013-03-13 19:34:00,48.9,23.1,29.94,ENE,67,0.0,0.0,36,0.00,,---,0.00,VWS V14.01,2013-03-13 23:34:00,
2013-03-13 19:35:00,48.9,22.5,29.94,ENE,67,0.0,0.0,35,0.00,,---,0.00,VWS V14.01,2013-03-13 23:35:00,
2013-03-13 19:36:00,48.9,22.5,29.94,NE,35,0.0,0.0,35,0.00,,---,0.00,VWS V14.01,2013-03-13 23:36:00,
2013-03-13 19:37:00,48.8,22.4,29.94,NE,39,0.0,0.0,35,0.00,,---,0.00,VWS V14.01,2013-03-13 23:37:00,
2013-03-13 19:38:00,48.8,23.0,29.94,NE,39,0.0,0.0,36,0.00,,---,0.00,VWS V14.01,2013-03-13 23:38:00,
2013-03-13 19:39:00,48.6,22.9,29.94,NE,39,0.0,0.0,36,0.00,,---,0.00,VWS V14.01,2013-03-13 23:39:00,
2013-03-13 19:40:00,48.6,22.9,29.94,NE,39,0.0,0.0,36,0.00,,---,0.00,VWS V14.01,2013-03-13 23:40:00,
2013-03-13 19:41:00,48.6,22.9,29.94,NE,42,0.0,0.0,36,0.00,,---,0.00,VWS V14.01,2013-03-13 23:41:00,
2013-03-13 19:42:00,48.5,22.8,29.94,ENE,69,0.0,0.0,36,0.00,,---,0.00,VWS V14.01,2013-03-13 23:42:00,
2013-03-13 19:43:00,48.5,22.8,29.94,East,94,0.0,0.0,36,0.00,,---,0.00,VWS V14.01,2013-03-13 23:43:00,
2013-03-13 19:44:00,48.5,22.8,29.94,East,90,0.0,0.0,36,0.00,,---,0.00,VWS V14.01,2013-03-13 23:44:00,
2013-03-13 19:45:00,48.3,22.6,29.95,East,79,0.0,0.0,36,0.00,,---,0.00,VWS V14.01,2013-03-13 23:45:00,
2013-03-13 19:46:00,48.3,21.9,29.95,East,79,0.0,0.0,35,0.00,,---,0.00,VWS V14.01,2013-03-13 23:46:00,
2013-03-13 19:47:00,48.3,22.6,29.95,East,79,0.0,0.0,36,0.00,,---,0.00,VWS V14.01,2013-03-13 23:47:00,
2013-03-13 19:48:00,48.2,23.2,29.95,East,79,0.0,0.0,37,0.00,,---,0.00,VWS V14.01,2013-03-13 23:48:00,
2013-03-13 19:49:00,48.2,23.2,29.95,East,79,0.0,0.0,37,0.00,,---,0.00,VWS V14.01,2013-03-13 23:49:00,
2013-03-13 19:50:00,48.2,23.2,29.95,East,86,0.0,0.0,37,0.00,,---,0.00,VWS V14.01,2013-03-13 23:50:00,
2013-03-13 19:51:00,48.0,23.0,29.95,East,87,0.0,0.0,37,0.00,,---,0.00,VWS V14.01,2013-03-13 23:51:00,
2013-03-13 19:52:00,48.0,21.7,29.95,ESE,111,0.0,0.0,35,0.00,,---,0.00,VWS V14.01,2013-03-13 23:52:00,
2013-03-13 19:53:00,48.0,21.7,29.95,ESE,111,0.0,0.0,35,0.00,,---,0.00,VWS V14.01,2013-03-13 23:53:00,
2013-03-13 19:54:00,47.9,21.6,29.95,East,82,0.0,0.0,35,0.00,,---,0.00,VWS V14.01,2013-03-13 23:54:00,
2013-03-13 19:55:00,47.9,21.6,29.95,East,84,0.0,0.0,35,0.00,,---,0.00,VWS V14.01,2013-03-13 23:55:00,
2013-03-13 19:56:00,47.9,21.6,29.95,East,80,0.0,0.0,35,0.00,,---,0.00,VWS V14.01,2013-03-13 23:56:00,
2013-03-13 19:57:00,47.7,21.4,29.95,East,80,0.0,0.0,35,0.00,,---,0.00,VWS V14.01,2013-03-13 23:57:00,
2013-03-13 19:58:00,47.7,22.1,29.95,ENE,67,0.0,0.0,36,0.00,,---,0.00,VWS V14.01,2013-03-13 23:58:00,
2013-03-13 19:59:00,47.7,21.4,29.95,ENE,78,0.0,0.0,35,0.00,,---,0.00,VWS V14.01,2013-03-13 23:59:00,
2013-03-13 20:00:00,47.6,21.3,29.96,East,88,0.0,0.0,35,0.00,,---,0.00,VWS V14.01,2013-03-14 00:00:00,
2013-03-13 20:01:00,47.6,20.6,29.96,ENE,77,0.0,0.0,34,0.00,,---,0.00,VWS V14.01,2013-03-14 00:01:00,
2013-03-13 20:02:00,47.4,20.5,29.96,ENE,67,0.0,0.0,34,0.00,,---,0.00,VWS V14.01,2013-03-14 00:02:00,
2013-03-13 20:03:00,47.4,20.5,29.96,ENE,69,0.0,0.0,34,0.00,,---,0.00,VWS V14.01,2013-03-14 00:03:00,
2013-03-13 20:04:00,47.4,20.5,29.96,ENE,69,0.0,0.0,34,0.00,,---,0.00,VWS V14.01,2013-03-14 00:04:00,
2013-03-13 20:05:00,47.4,20.5,29.96,East,101,0.0,0.0,34,0.00,,---,0.00,VWS V14.01,2013-03-14 00:05:00,
2013-03-13 20:06:00,47.3,20.4,29.96,East,93,0.0,0.0,34,0.00,,---,0.00,VWS V14.01,2013-03-14 00:06:00,
2013-03-13 20:07:00,47.3,20.4,29.96,East,84,0.0,0.0,34,0.00,,---,0.00,VWS V14.01,2013-03-14 00:07:00,
2013-03-13 20:08:00,47.3,20.4,29.96,East,84,0.0,0.0,34,0.00,,---,0.00,VWS V14.01,2013-03-14 00:08:00,
2013-03-13 20:09:00,47.1,20.2,29.96,NE,53,0.0,0.0,34,0.00,,---,0.00,VWS V14.01,2013-03-14 00:09:00,
2013-03-13 20:10:00,47.1,20.2,29.96,East,82,0.0,0.0,34,0.00,,---,0.00,VWS V14.01,2013-03-14 00:10:00,
2013-03-13 20:11:00,47.1,20.2,29.96,NE,51,0.0,0.0,34,0.00,,---,0.00,VWS V14.01,2013-03-14 00:11:00,
2013-03-13 20:12:00,47.0,20.1,29.96,ENE,62,0.0,0.0,34,0.00,,---,0.00,VWS V14.01,2013-03-14 00:12:00,
2013-03-13 20:13:00,47.0,20.8,29.96,ENE,71,0.0,0.0,35,0.00,,---,0.00,VWS V14.01,2013-03-14 00:13:00,
2013-03-13 20:14:00,47.0,20.1,29.96,ENE,73,0.0,0.0,34,0.00,,---,0.00,VWS V14.01,2013-03-14 00:14:00,
2013-03-13 20:15:00,46.8,19.9,29.97,ENE,74,0.0,0.0,34,0.00,,---,0.00,VWS V14.01,2013-03-14 00:15:00,
2013-03-13 20:16:00,46.8,19.9,29.97,ENE,74,0.0,0.0,34,0.00,,---,0.00,VWS V14.01,2013-03-14 00:16:00,
2013-03-13 20:17:00,46.8,21.3,29.97,SE,141,0.0,0.0,36,0.00,,---,0.00,VWS V14.01,2013-03-14 00:17:00,
2013-03-13 20:18:00,46.7,21.2,29.97,ENE,74,0.0,0.0,36,0.00,,---,0.00,VWS V14.01,2013-03-14 00:18:00,
2013-03-13 20:19:00,46.7,20.5,29.97,ESE,107,0.0,0.0,35,0.00,,---,0.00,VWS V14.01,2013-03-14 00:19:00,
2013-03-13 20:20:00,46.5,20.3,29.97,ENE,61,0.0,0.0,35,0.00,,---,0.00,VWS V14.01,2013-03-14 00:20:00,
2013-03-13 20:21:00,46.5,21.0,29.97,SE,126,0.0,0.0,36,0.00,,---,0.00,VWS V14.01,2013-03-14 00:21:00,
2013-03-13 20:22:00,46.4,20.9,29.97,East,84,0.0,0.0,36,0.00,,---,0.00,VWS V14.01,2013-03-14 00:22:00,
2013-03-13 20:23:00,46.4,20.9,29.97,East,84,0.0,0.0,36,0.00,,---,0.00,VWS V14.01,2013-03-14 00:23:00,
2013-03-13 20:24:00,46.2,20.7,29.97,ENE,74,0.0,0.0,36,0.00,,---,0.00,VWS V14.01,2013-03-14 00:24:00,
2013-03-13 20:25:00,46.2,20.7,29.97,ENE,71,0.0,0.0,36,0.00,,---,0.00,VWS V14.01,2013-03-14 00:25:00,
2013-03-13 20:26:00,46.2,21.4,29.97,East,83,0.0,0.0,37,0.00,,---,0.00,VWS V14.01,2013-03-14 00:26:00,
2013-03-13 20:27:00,46.1,21.3,29.97,East,87,0.0,0.0,37,0.00,,---,0.00,VWS V14.01,2013-03-14 00:27:00,
2013-03-13 20:28:00,46.1,21.3,29.97,ENE,74,0.0,0.0,37,0.00,,---,0.00,VWS V14.01,2013-03-14 00:28:00,
2013-03-13 20:29:00,46.1,21.3,29.97,NE,45,0.0,0.0,37,0.00,,---,0.00,VWS V14.01,2013-03-14 00:29:00,
2013-03-13 20:30:00,46.0,20.6,29.98,NE,53,0.0,0.0,36,0.00,,---,0.00,VWS V14.01,2013-03-14 00:30:00,
2013-03-13 20:31:00,46.0,21.2,29.98,ENE,65,0.0,0.0,37,0.00,,---,0.00,VWS V14.01,2013-03-14 00:31:00,
2013-03-13 20:32:00,46.0,21.8,29.98,ENE,65,0.0,0.0,38,0.00,,---,0.00,VWS V14.01,2013-03-14 00:32:00,
2013-03-13 20:33:00,45.8,21.6,29.98,ENE,71,0.0,0.0,38,0.00,,---,0.00,VWS V14.01,2013-03-14 00:33:00,
2013-03-13 20:34:00,45.8,21.6,29.98,East,92,0.0,0.0,38,0.00,,---,0.00,VWS V14.01,2013-03-14 00:34:00,
2013-03-13 20:35:00,45.7,21.6,29.98,ESE,106,0.0,0.0,38,0.00,,---,0.00,VWS V14.01,2013-03-14 00:35:00,
2013-03-13 20:36:00,45.7,20.9,29.98,East,92,0.0,0.0,37,0.00,,---,0.00,VWS V14.01,2013-03-14 00:36:00,
2013-03-13 20:37:00,45.7,21.6,29.98,ESE,102,0.0,0.0,38,0.00,,---,0.00,VWS V14.01,2013-03-14 00:37:00,
2013-03-13 20:38:00,45.7,21.6,29.98,East,101,0.0,0.0,38,0.00,,---,0.00,VWS V14.01,2013-03-14 00:38:00,
2013-03-13 20:39:00,45.5,21.4,29.98,East,88,0.0,0.0,38,0.00,,---,0.00,VWS V14.01,2013-03-14 00:39:00,
2013-03-13 20:40:00,45.5,21.4,29.98,East,88,0.0,0.0,38,0.00,,---,0.00,VWS V14.01,2013-03-14 00:40:00,
2013-03-13 20:41:00,45.4,21.3,29.98,East,80,0.0,0.0,38,0.00,,---,0.00,VWS V14.01,2013-03-14 00:41:00,
2013-03-13 20:42:00,45.4,21.3,29.98,East,79,0.0,0.0,38,0.00,,---,0.00,VWS V14.01,2013-03-14 00:42:00,
2013-03-13 20:43:00,45.4,21.3,29.98,East,88,0.0,0.0,38,0.00,,---,0.00,VWS V14.01,2013-03-14 00:43:00,
2013-03-13 20:44:00,45.2,21.1,29.98,East,83,0.0,0.0,38,0.00,,---,0.00,VWS V14.01,2013-03-14 00:44:00,
2013-03-13 20:45:00,45.2,21.1,29.99,East,83,0.0,0.0,38,0.00,,---,0.00,VWS V14.01,2013-03-14 00:45:00,
2013-03-13 20:46:00,45.2,21.1,29.99,East,84,0.0,0.0,38,0.00,,---,0.00,VWS V14.01,2013-03-14 00:46:00,
2013-03-13 20:47:00,45.2,21.1,29.99,East,84,0.0,0.0,38,0.00,,---,0.00,VWS V14.01,2013-03-14 00:47:00,
2013-03-13 20:48:00,45.1,21.0,29.99,ESE,115,0.0,0.0,38,0.00,,---,0.00,VWS V14.01,2013-03-14 00:48:00,
2013-03-13 20:49:00,44.9,20.9,29.99,ESE,111,0.0,0.0,38,0.00,,---,0.00,VWS V14.01,2013-03-14 00:49:00,
2013-03-13 20:50:00,44.9,20.9,29.99,East,99,0.0,0.0,38,0.00,,---,0.00,VWS V14.01,2013-03-14 00:50:00,
2013-03-13 20:51:00,44.8,20.8,29.99,East,82,0.0,0.0,38,0.00,,---,0.00,VWS V14.01,2013-03-14 00:51:00,
2013-03-13 20:52:00,44.8,20.8,29.99,East,94,0.0,0.0,38,0.00,,---,0.00,VWS V14.01,2013-03-14 00:52:00,
2013-03-13 20:53:00,44.8,20.8,29.99,ENE,76,0.0,0.0,38,0.00,,---,0.00,VWS V14.01,2013-03-14 00:53:00,
2013-03-13 20:54:00,44.8,20.8,29.99,East,84,0.0,0.0,38,0.00,,---,0.00,VWS V14.01,2013-03-14 00:54:00,
2013-03-13 20:55:00,44.8,20.8,29.99,East,84,0.0,0.0,38,0.00,,---,0.00,VWS V14.01,2013-03-14 00:55:00,
2013-03-13 20:56:00,44.6,20.6,29.99,ENE,70,0.0,0.0,38,0.00,,---,0.00,VWS V14.01,2013-03-14 00:56:00,
2013-03-13 20:57:00,44.6,20.6,29.99,ENE,72,0.0,0.0,38,0.00,,---,0.00,VWS V14.01,2013-03-14 00:57:00,
2013-03-13 20:58:00,44.6,20.6,29.99,ENE,72,0.0,0.0,38,0.00,,---,0.00,VWS V14.01,2013-03-14 00:58:00,
2013-03-13 20:59:00,44.6,20.6,29.99,ENE,64,0.0,0.0,38,0.00,,---,0.00,VWS V14.01,2013-03-14 00:59:00,
2013-03-13 21:00:00,44.6,20.6,29.99,East,81,0.0,0.0,38,0.00,,---,0.00,VWS V14.01,2013-03-14 01:00:00,
2013-03-13 21:01:00,44.5,20.5,29.99,ENE,69,0.0,0.0,38,0.00,,---,0.00,VWS V14.01,2013-03-14 01:01:00,
2013-03-13 21:02:00,44.5,20.5,29.99,East,91,0.0,0.0,38,0.00,,---,0.00,VWS V14.01,2013-03-14 01:02:00,
2013-03-13 21:03:00,44.5,20.5,29.99,ENE,61,0.0,0.0,38,0.00,,---,0.00,VWS V14.01,2013-03-14 01:03:00,
2013-03-13 21:04:00,44.5,20.5,29.99,ENE,57,0.0,0.0,38,0.00,,---,0.00,VWS V14.01,2013-03-14 01:04:00,
2013-03-13 21:05:00,44.5,20.5,29.99,ENE,69,0.0,0.0,38,0.00,,---,0.00,VWS V14.01,2013-03-14 01:05:00,
2013-03-13 21:06:00,44.3,20.3,29.99,ENE,69,0.0,0.0,38,0.00,,---,0.00,VWS V14.01,2013-03-14 01:06:00,
2013-03-13 21:07:00,44.3,20.9,29.99,ENE,69,0.0,0.0,39,0.00,,---,0.00,VWS V14.01,2013-03-14 01:07:00,
2013-03-13 21:08:00,44.3,20.9,29.99,ENE,69,0.0,0.0,39,0.00,,---,0.00,VWS V14.01,2013-03-14 01:08:00,
2013-03-13 21:09:00,44.3,20.9,29.99,ENE,69,0.0,0.0,39,0.00,,---,0.00,VWS V14.01,2013-03-14 01:09:00,
2013-03-13 21:10:00,44.2,20.8,29.99,ESE,112,0.0,0.0,39,0.00,,---,0.00,VWS V14.01,2013-03-14 01:10:00,
2013-03-13 21:11:00,44.2,20.8,29.99,ENE,72,0.0,0.0,39,0.00,,---,0.00,VWS V14.01,2013-03-14 01:11:00,
2013-03-13 21:12:00,44.1,20.1,29.99,East,86,0.0,0.0,38,0.00,,---,0.00,VWS V14.01,2013-03-14 01:12:00,
2013-03-13 21:13:00,44.1,20.1,29.99,East,85,0.0,0.0,38,0.00,,---,0.00,VWS V14.01,2013-03-14 01:13:00,
2013-03-13 21:14:00,44.1,20.1,29.99,East,80,0.0,0.0,38,0.00,,---,0.00,VWS V14.01,2013-03-14 01:14:00,
2013-03-13 21:15:00,43.9,20.0,29.99,East,80,0.0,0.0,38,0.00,,---,0.00,VWS V14.01,2013-03-14 01:15:00,
2013-03-13 21:16:00,43.9,20.6,29.99,East,90,0.0,0.0,39,0.00,,---,0.00,VWS V14.01,2013-03-14 01:16:00,
2013-03-13 21:17:00,43.9,20.6,29.99,East,90,0.0,0.0,39,0.00,,---,0.00,VWS V14.01,2013-03-14 01:17:00,
2013-03-13 21:18:00,43.8,19.9,29.99,ENE,69,0.0,0.0,38,0.00,,---,0.00,VWS V14.01,2013-03-14 01:18:00,
2013-03-13 21:19:00,43.8,20.5,29.99,East,84,0.0,0.0,39,0.00,,---,0.00,VWS V14.01,2013-03-14 01:19:00,
2013-03-13 21:20:00,43.8,20.5,29.99,ENE,69,0.0,0.0,39,0.00,,---,0.00,VWS V14.01,2013-03-14 01:20:00,
2013-03-13 21:21:00,43.8,20.5,29.99,ENE,76,0.0,0.0,39,0.00,,---,0.00,VWS V14.01,2013-03-14 01:21:00,
2013-03-13 21:22:00,43.6,20.3,29.99,ENE,71,0.0,0.0,39,0.00,,---,0.00,VWS V14.01,2013-03-14 01:22:00,
2013-03-13 21:23:00,43.6,19.7,29.99,ENE,71,0.0,0.0,38,0.00,,---,0.00,VWS V14.01,2013-03-14 01:23:00,
2013-03-13 21:24:00,43.6,19.7,29.99,ENE,72,0.0,0.0,38,0.00,,---,0.00,VWS V14.01,2013-03-14 01:24:00,
2013-03-13 21:25:00,43.5,19.6,29.99,East,95,0.0,0.0,38,0.00,,---,0.00,VWS V14.01,2013-03-14 01:25:00,
2013-03-13 21:26:00,43.5,19.6,29.99,East,82,0.0,0.0,38,0.00,,---,0.00,VWS V14.01,2013-03-14 01:26:00,
2013-03-13 21:27:00,43.5,19.6,29.99,East,79,0.0,0.0,38,0.00,,---,0.00,VWS V14.01,2013-03-14 01:27:00,
2013-03-13 21:28:00,43.3,19.4,29.99,East,80,0.0,0.0,38,0.00,,---,0.00,VWS V14.01,2013-03-14 01:28:00,
2013-03-13 21:29:00,43.3,19.4,29.99,East,98,0.0,0.0,38,0.00,,---,0.00,VWS V14.01,2013-03-14 01:29:00,
2013-03-13 21:30:00,43.3,19.4,30.00,ENE,74,0.0,0.0,38,0.00,,---,0.00,VWS V14.01,2013-03-14 01:30:00,
2013-03-13 21:31:00,43.3,19.4,30.00,ENE,71,0.0,0.0,38,0.00,,---,0.00,VWS V14.01,2013-03-14 01:31:00,
2013-03-13 21:32:00,43.2,19.3,30.00,ENE,71,0.0,0.0,38,0.00,,---,0.00,VWS V14.01,2013-03-14 01:32:00,
2013-03-13 21:33:00,43.2,19.3,30.00,ENE,75,0.0,0.0,38,0.00,,---,0.00,VWS V14.01,2013-03-14 01:33:00,
2013-03-13 21:34:00,43.2,19.3,30.00,ENE,61,0.0,0.0,38,0.00,,---,0.00,VWS V14.01,2013-03-14 01:34:00,
2013-03-13 21:35:00,43.1,19.2,30.00,NE,55,0.0,0.0,38,0.00,,---,0.00,VWS V14.01,2013-03-14 01:35:00,
2013-03-13 21:36:00,43.1,19.2,30.00,ENE,69,0.0,0.0,38,0.00,,---,0.00,VWS V14.01,2013-03-14 01:36:00,
2013-03-13 21:37:00,43.1,19.2,30.00,East,97,0.0,0.0,38,0.00,,---,0.00,VWS V14.01,2013-03-14 01:37:00,
2013-03-13 21:38:00,43.1,19.2,30.00,ENE,67,0.0,0.0,38,0.00,,---,0.00,VWS V14.01,2013-03-14 01:38:00,
2013-03-13 21:39:00,43.1,19.2,30.00,ENE,69,0.0,0.0,38,0.00,,---,0.00,VWS V14.01,2013-03-14 01:39:00,
2013-03-13 21:40:00,42.9,19.1,30.00,East,82,0.0,0.0,38,0.00,,---,0.00,VWS V14.01,2013-03-14 01:40:00,
2013-03-13 21:41:00,42.9,18.4,30.00,ENE,63,0.0,0.0,37,0.00,,---,0.00,VWS V14.01,2013-03-14 01:41:00,
2013-03-13 21:42:00,42.9,18.4,30.00,East,81,0.0,0.0,37,0.00,,---,0.00,VWS V14.01,2013-03-14 01:42:00,
2013-03-13 21:43:00,42.9,19.1,30.00,ENE,77,0.0,0.0,38,0.00,,---,0.00,VWS V14.01,2013-03-14 01:43:00,
2013-03-13 21:44:00,42.9,18.4,30.00,ENE,74,0.0,0.0,37,0.00,,---,0.00,VWS V14.01,2013-03-14 01:44:00,
2013-03-13 21:45:00,42.9,18.4,30.01,ENE,76,0.0,0.0,37,0.00,,---,0.00,VWS V14.01,2013-03-14 01:45:00,
2013-03-13 21:46:00,42.9,18.4,30.01,NE,53,0.0,0.0,37,0.00,,---,0.00,VWS V14.01,2013-03-14 01:46:00,
2013-03-13 21:47:00,42.8,19.0,30.01,ENE,76,0.0,0.0,38,0.00,,---,0.00,VWS V14.01,2013-03-14 01:47:00,
2013-03-13 21:48:00,42.8,19.0,30.01,East,84,0.0,0.0,38,0.00,,---,0.00,VWS V14.01,2013-03-14 01:48:00,
2013-03-13 21:49:00,42.8,19.0,30.01,ENE,76,0.0,0.0,38,0.00,,---,0.00,VWS V14.01,2013-03-14 01:49:00,
2013-03-13 21:50:00,42.8,19.0,30.01,ENE,65,0.0,0.0,38,0.00,,---,0.00,VWS V14.01,2013-03-14 01:50:00,
2013-03-13 21:51:00,42.6,18.8,30.01,ENE,71,0.0,0.0,38,0.00,,---,0.00,VWS V14.01,2013-03-14 01:51:00,
2013-03-13 21:52:00,42.6,18.8,30.01,East,94,0.0,0.0,38,0.00,,---,0.00,VWS V14.01,2013-03-14 01:52:00,
2013-03-13 21:53:00,42.6,18.8,30.01,East,90,0.0,0.0,38,0.00,,---,0.00,VWS V14.01,2013-03-14 01:53:00,
2013-03-13 21:54:00,42.6,18.8,30.01,East,85,0.0,0.0,38,0.00,,---,0.00,VWS V14.01,2013-03-14 01:54:00,
2013-03-13 21:55:00,42.6,18.8,30.01,East,85,0.0,0.0,38,0.00,,---,0.00,VWS V14.01,2013-03-14 01:55:00,
2013-03-13 21:56:00,42.5,18.7,30.01,East,82,0.0,0.0,38,0.00,,---,0.00,VWS V14.01,2013-03-14 01:56:00,
2013-03-13 21:57:00,42.5,18.7,30.01,East,84,0.0,0.0,38,0.00,,---,0.00,VWS V14.01,2013-03-14 01:57:00,
2013-03-13 21:58:00,42.5,18.7,30.01,ESE,108,0.0,0.0,38,0.00,,---,0.00,VWS V14.01,2013-03-14 01:58:00,
2013-03-13 21:59:00,42.5,18.7,30.01,ESE,108,0.0,0.0,38,0.00,,---,0.00,VWS V14.01,2013-03-14 01:59:00,
2013-03-13 22:00:00,42.5,18.7,30.01,ESE,107,0.0,0.0,38,0.00,,---,0.00,VWS V14.01,2013-03-14 02:00:00,
2013-03-13 22:01:00,42.3,18.5,30.01,ENE,76,0.0,0.0,38,0.00,,---,0.00,VWS V14.01,2013-03-14 02:01:00,
2013-03-13 22:02:00,42.3,18.5,30.01,ENE,63,0.0,0.0,38,0.00,,---,0.00,VWS V14.01,2013-03-14 02:02:00,
2013-03-13 22:03:00,42.3,19.1,30.01,ENE,65,0.0,0.0,39,0.00,,---,0.00,VWS V14.01,2013-03-14 02:03:00,
2013-03-13 22:04:00,42.3,17.9,30.01,ENE,59,0.0,0.0,37,0.00,,---,0.00,VWS V14.01,2013-03-14 02:04:00,
2013-03-13 22:05:00,42.3,17.9,30.01,ENE,71,0.0,0.0,37,0.00,,---,0.00,VWS V14.01,2013-03-14 02:05:00,
2013-03-13 22:06:00,42.3,18.5,30.01,ENE,69,0.0,0.0,38,0.00,,---,0.00,VWS V14.01,2013-03-14 02:06:00,
2013-03-13 22:07:00,42.3,18.5,30.01,ENE,71,0.0,0.0,38,0.00,,---,0.00,VWS V14.01,2013-03-14 02:07:00,
2013-03-13 22:08:00,42.2,18.4,30.01,ENE,70,0.0,0.0,38,0.00,,---,0.00,VWS V14.01,2013-03-14 02:08:00,
2013-03-13 22:09:00,42.2,18.4,30.01,East,92,0.0,0.0,38,0.00,,---,0.00,VWS V14.01,2013-03-14 02:09:00,
2013-03-13 22:10:00,42.2,18.4,30.01,ENE,72,0.0,0.0,38,0.00,,---,0.00,VWS V14.01,2013-03-14 02:10:00,
2013-03-13 22:11:00,42.2,18.4,30.01,East,87,0.0,0.0,38,0.00,,---,0.00,VWS V14.01,2013-03-14 02:11:00,
2013-03-13 22:12:00,42.2,18.4,30.01,ENE,67,0.0,0.0,38,0.00,,---,0.00,VWS V14.01,2013-03-14 02:12:00,
2013-03-13 22:13:00,42.2,18.4,30.01,ENE,68,0.0,0.0,38,0.00,,---,0.00,VWS V14.01,2013-03-14 02:13:00,
2013-03-13 22:14:00,42.1,18.3,30.02,ENE,68,0.0,0.0,38,0.00,,---,0.00,VWS V14.01,2013-03-14 02:14:00,
2013-03-13 22:15:00,42.1,18.3,30.02,ENE,69,0.0,0.0,38,0.00,,---,0.00,VWS V14.01,2013-03-14 02:15:00,
2013-03-13 22:16:00,42.1,18.3,30.02,ENE,77,0.0,0.0,38,0.00,,---,0.00,VWS V14.01,2013-03-14 02:16:00,
2013-03-13 22:17:00,41.9,18.8,30.02,East,84,0.0,0.0,39,0.00,,---,0.00,VWS V14.01,2013-03-14 02:17:00,
2013-03-13 22:18:00,41.9,18.2,30.02,East,81,0.0,0.0,38,0.00,,---,0.00,VWS V14.01,2013-03-14 02:18:00,
2013-03-13 22:19:00,41.9,18.2,30.02,East,92,0.0,0.0,38,0.00,,---,0.00,VWS V14.01,2013-03-14 02:19:00,
2013-03-13 22:20:00,41.9,18.2,30.02,ENE,74,0.0,0.0,38,0.00,,---,0.00,VWS V14.01,2013-03-14 02:20:00,
2013-03-13 22:21:00,41.8,18.1,30.02,ENE,65,0.0,0.0,38,0.00,,---,0.00,VWS V14.01,2013-03-14 02:21:00,
2013-03-13 22:22:00,41.8,18.1,30.02,NE,52,0.0,0.0,38,0.00,,---,0.00,VWS V14.01,2013-03-14 02:22:00,
2013-03-13 22:23:00,41.8,18.1,30.02,East,82,0.0,0.0,38,0.00,,---,0.00,VWS V14.01,2013-03-14 02:23:00,
2013-03-13 22:24:00,41.6,17.9,30.02,East,84,0.0,0.0,38,0.00,,---,0.00,VWS V14.01,2013-03-14 02:24:00,
2013-03-13 22:25:00,41.6,17.9,30.02,East,99,0.0,0.0,38,0.00,,---,0.00,VWS V14.01,2013-03-14 02:25:00,
2013-03-13 22:26:00,41.6,17.9,30.02,East,89,0.0,0.0,38,0.00,,---,0.00,VWS V14.01,2013-03-14 02:26:00,
2013-03-13 22:27:00,41.6,17.9,30.02,East,96,0.0,0.0,38,0.00,,---,0.00,VWS V14.01,2013-03-14 02:27:00,
2013-03-13 22:28:00,41.5,17.8,30.02,East,79,0.0,0.0,38,0.00,,---,0.00,VWS V14.01,2013-03-14 02:28:00,
2013-03-13 22:29:00,41.5,17.8,30.02,East,89,0.0,0.0,38,0.00,,---,0.00,VWS V14.01,2013-03-14 02:29:00,
2013-03-13 22:30:00,41.5,18.4,30.02,East,89,0.0,0.0,39,0.00,,---,0.00,VWS V14.01,2013-03-14 02:30:00,
2013-03-13 22:31:00,41.5,18.4,30.02,ENE,63,0.0,0.0,39,0.00,,---,0.00,VWS V14.01,2013-03-14 02:31:00,
2013-03-13 22:32:00,41.3,17.6,30.02,ENE,57,0.0,0.0,38,0.00,,---,0.00,VWS V14.01,2013-03-14 02:32:00,
2013-03-13 22:33:00,41.3,18.2,30.02,ENE,63,0.0,0.0,39,0.00,,---,0.00,VWS V14.01,2013-03-14 02:33:00,
2013-03-13 22:34:00,41.3,18.2,30.02,ENE,63,0.0,0.0,39,0.00,,---,0.00,VWS V14.01,2013-03-14 02:34:00,
2013-03-13 22:35:00,41.2,18.1,30.02,ENE,66,0.0,0.0,39,0.00,,---,0.00,VWS V14.01,2013-03-14 02:35:00,
2013-03-13 22:36:00,41.2,18.1,30.02,ENE,62,0.0,0.0,39,0.00,,---,0.00,VWS V14.01,2013-03-14 02:36:00,
2013-03-13 22:37:00,41.2,18.1,30.02,ENE,57,0.0,0.0,39,0.00,,---,0.00,VWS V14.01,2013-03-14 02:37:00,
2013-03-13 22:38:00,41.1,17.4,30.02,ENE,69,0.0,0.0,38,0.00,,---,0.00,VWS V14.01,2013-03-14 02:38:00,
2013-03-13 22:39:00,41.1,17.4,30.02,ENE,78,0.0,0.0,38,0.00,,---,0.00,VWS V14.01,2013-03-14 02:39:00,
2013-03-13 22:40:00,41.1,17.4,30.02,East,81,0.0,0.0,38,0.00,,---,0.00,VWS V14.01,2013-03-14 02:40:00,
2013-03-13 22:41:00,40.9,17.9,30.02,ENE,74,0.0,0.0,39,0.00,,---,0.00,VWS V14.01,2013-03-14 02:41:00,
2013-03-13 22:42:00,40.9,17.9,30.02,ENE,66,0.0,0.0,39,0.00,,---,0.00,VWS V14.01,2013-03-14 02:42:00,
2013-03-13 22:43:00,40.9,17.3,30.02,ENE,67,0.0,0.0,38,0.00,,---,0.00,VWS V14.01,2013-03-14 02:43:00,
2013-03-13 22:44:00,40.9,17.3,30.02,ENE,74,0.0,0.0,38,0.00,,---,0.00,VWS V14.01,2013-03-14 02:44:00,
2013-03-13 22:45:00,40.8,17.2,30.03,ENE,76,0.0,0.0,38,0.00,,---,0.00,VWS V14.01,2013-03-14 02:45:00,
2013-03-13 22:46:00,40.8,17.2,30.03,East,81,0.0,0.0,38,0.00,,---,0.00,VWS V14.01,2013-03-14 02:46:00,
2013-03-13 22:47:00,40.8,17.8,30.03,East,81,0.0,0.0,39,0.00,,---,0.00,VWS V14.01,2013-03-14 02:47:00,
2013-03-13 22:48:00,40.8,17.8,30.03,East,83,0.0,0.0,39,0.00,,---,0.00,VWS V14.01,2013-03-14 02:48:00,
2013-03-13 22:49:00,40.8,17.8,30.03,East,83,0.0,0.0,39,0.00,,---,0.00,VWS V14.01,2013-03-14 02:49:00,
2013-03-13 22:50:00,40.6,17.6,30.03,East,87,0.0,0.0,39,0.00,,---,0.00,VWS V14.01,2013-03-14 02:50:00,
2013-03-13 22:51:00,40.6,18.2,30.03,East,87,0.0,0.0,40,0.00,,---,0.00,VWS V14.01,2013-03-14 02:51:00,
2013-03-13 22:52:00,40.6,18.2,30.03,East,87,0.0,0.0,40,0.00,,---,0.00,VWS V14.01,2013-03-14 02:52:00,
2013-03-13 22:53:00,40.6,18.2,30.03,East,87,0.0,0.0,40,0.00,,---,0.00,VWS V14.01,2013-03-14 02:53:00,
2013-03-13 22:54:00,40.5,18.1,30.03,East,87,0.0,0.0,40,0.00,,---,0.00,VWS V14.01,2013-03-14 02:54:00,
2013-03-13 22:55:00,40.5,18.1,30.03,East,87,0.0,0.0,40,0.00,,---,0.00,VWS V14.01,2013-03-14 02:55:00,
2013-03-13 22:56:00,40.5,18.1,30.03,East,88,0.0,0.0,40,0.00,,---,0.00,VWS V14.01,2013-03-14 02:56:00,
2013-03-13 22:57:00,40.5,18.7,30.03,East,88,0.0,0.0,41,0.00,,---,0.00,VWS V14.01,2013-03-14 02:57:00,
2013-03-13 22:58:00,40.3,17.9,30.03,East,88,0.0,0.0,40,0.00,,---,0.00,VWS V14.01,2013-03-14 02:58:00,
2013-03-13 22:59:00,40.3,18.5,30.03,East,88,0.0,0.0,41,0.00,,---,0.00,VWS V14.01,2013-03-14 02:59:00,
2013-03-13 23:00:00,40.3,18.5,30.03,East,90,0.0,0.0,41,0.00,,---,0.00,VWS V14.01,2013-03-14 03:00:00,
2013-03-13 23:01:00,40.2,18.4,30.03,East,90,0.0,0.0,41,0.00,,---,0.00,VWS V14.01,2013-03-14 03:01:00,
2013-03-13 23:02:00,40.2,18.4,30.03,East,90,0.0,0.0,41,0.00,,---,0.00,VWS V14.01,2013-03-14 03:02:00,
2013-03-13 23:03:00,40.2,18.4,30.03,East,82,0.0,0.0,41,0.00,,---,0.00,VWS V14.01,2013-03-14 03:03:00,
2013-03-13 23:04:00,40.1,18.3,30.03,East,81,0.0,0.0,41,0.00,,---,0.00,VWS V14.01,2013-03-14 03:04:00,
2013-03-13 23:05:00,40.1,18.9,30.03,East,81,0.0,0.0,42,0.00,,---,0.00,VWS V14.01,2013-03-14 03:05:00,
2013-03-13 23:06:00,40.1,18.9,30.03,East,81,0.0,0.0,42,0.00,,---,0.00,VWS V14.01,2013-03-14 03:06:00,
2013-03-13 23:07:00,40.1,18.9,30.03,East,81,0.0,0.0,42,0.00,,---,0.00,VWS V14.01,2013-03-14 03:07:00,
2013-03-13 23:08:00,39.9,18.7,30.03,East,81,0.0,0.0,42,0.00,,---,0.00,VWS V14.01,2013-03-14 03:08:00,
2013-03-13 23:09:00,39.9,18.7,30.03,East,83,0.0,0.0,42,0.00,,---,0.00,VWS V14.01,2013-03-14 03:09:00,
2013-03-13 23:10:00,39.9,18.7,30.03,East,86,0.0,0.0,42,0.00,,---,0.00,VWS V14.01,2013-03-14 03:10:00,
2013-03-13 23:11:00,39.9,18.7,30.03,East,84,0.0,0.0,42,0.00,,---,0.00,VWS V14.01,2013-03-14 03:11:00,
2013-03-13 23:12:00,39.8,18.6,30.03,ENE,73,0.0,0.0,42,0.00,,---,0.00,VWS V14.01,2013-03-14 03:12:00,
2013-03-13 23:13:00,39.8,18.0,30.03,ENE,58,0.0,0.0,41,0.00,,---,0.00,VWS V14.01,2013-03-14 03:13:00,
2013-03-13 23:14:00,39.8,18.0,30.03,ENE,63,0.0,0.0,41,0.00,,---,0.00,VWS V14.01,2013-03-14 03:14:00,
2013-03-13 23:15:00,39.6,18.4,30.04,ENE,74,0.0,0.0,42,0.00,,---,0.00,VWS V14.01,2013-03-14 03:15:00,
2013-03-13 23:16:00,39.6,18.4,30.04,ENE,67,0.0,0.0,42,0.00,,---,0.00,VWS V14.01,2013-03-14 03:16:00,
2013-03-13 23:17:00,39.6,18.4,30.04,NE,53,0.0,0.0,42,0.00,,---,0.00,VWS V14.01,2013-03-14 03:17:00,
2013-03-13 23:18:00,39.6,18.4,30.04,ENE,61,0.0,0.0,42,0.00,,---,0.00,VWS V14.01,2013-03-14 03:18:00,
2013-03-13 23:19:00,39.6,18.4,30.04,SE,126,0.0,0.0,42,0.00,,---,0.00,VWS V14.01,2013-03-14 03:19:00,
2013-03-13 23:20:00,39.5,18.3,30.04,East,98,0.0,0.0,42,0.00,,---,0.00,VWS V14.01,2013-03-14 03:20:00,
2013-03-13 23:21:00,39.5,18.9,30.04,East,86,0.0,0.0,43,0.00,,---,0.00,VWS V14.01,2013-03-14 03:21:00,
2013-03-13 23:22:00,39.5,18.9,30.04,East,86,0.0,0.0,43,0.00,,---,0.00,VWS V14.01,2013-03-14 03:22:00,
2013-03-13 23:23:00,39.5,18.9,30.04,ESE,121,0.0,0.0,43,0.00,,---,0.00,VWS V14.01,2013-03-14 03:23:00,
2013-03-13 23:24:00,39.5,18.9,30.04,ESE,121,0.0,0.0,43,0.00,,---,0.00,VWS V14.01,2013-03-14 03:24:00,
2013-03-13 23:25:00,39.5,18.9,30.04,ESE,121,0.0,0.0,43,0.00,,---,0.00,VWS V14.01,2013-03-14 03:25:00,
2013-03-13 23:26:00,39.3,18.7,30.04,ESE,121,0.0,0.0,43,0.00,,---,0.00,VWS V14.01,2013-03-14 03:26:00,
2013-03-13 23:27:00,39.3,18.7,30.04,ENE,61,0.0,0.0,43,0.00,,---,0.00,VWS V14.01,2013-03-14 03:27:00,
2013-03-13 23:28:00,39.2,18.6,30.04,ENE,78,0.0,0.0,43,0.00,,---,0.00,VWS V14.01,2013-03-14 03:28:00,
2013-03-13 23:29:00,39.2,18.6,30.04,East,79,0.0,0.0,43,0.00,,---,0.00,VWS V14.01,2013-03-14 03:29:00,
2013-03-13 23:30:00,39.2,18.6,30.04,ENE,78,0.0,0.0,43,0.00,,---,0.00,VWS V14.01,2013-03-14 03:30:00,
2013-03-13 23:31:00,39.2,18.6,30.04,ENE,74,0.0,0.0,43,0.00,,---,0.00,VWS V14.01,2013-03-14 03:31:00,
2013-03-13 23:32:00,39.1,18.5,30.04,ENE,74,0.0,0.0,43,0.00,,---,0.00,VWS V14.01,2013-03-14 03:32:00,
2013-03-13 23:33:00,39.1,18.0,30.04,East,85,0.0,0.0,42,0.00,,---,0.00,VWS V14.01,2013-03-14 03:33:00,
2013-03-13 23:34:00,39.1,18.0,30.04,ENE,76,0.0,0.0,42,0.00,,---,0.00,VWS V14.01,2013-03-14 03:34:00,
2013-03-13 23:35:00,38.9,17.8,30.04,ENE,74,0.0,0.0,42,0.00,,---,0.00,VWS V14.01,2013-03-14 03:35:00,
2013-03-13 23:36:00,38.9,18.3,30.04,East,86,0.0,0.0,43,0.00,,---,0.00,VWS V14.01,2013-03-14 03:36:00,
2013-03-13 23:37:00,38.9,18.3,30.04,NE,42,0.0,0.0,43,0.00,,---,0.00,VWS V14.01,2013-03-14 03:37:00,
2013-03-13 23:38:00,38.9,17.8,30.04,ENE,61,0.0,0.0,42,0.00,,---,0.00,VWS V14.01,2013-03-14 03:38:00,
2013-03-13 23:39:00,38.9,18.3,30.04,East,84,0.0,0.0,43,0.00,,---,0.00,VWS V14.01,2013-03-14 03:39:00,
2013-03-13 23:40:00,38.8,18.8,30.04,ENE,70,0.0,0.0,44,0.00,,---,0.00,VWS V14.01,2013-03-14 03:40:00,
2013-03-13 23:41:00,38.8,18.8,30.04,ENE,75,0.0,0.0,44,0.00,,---,0.00,VWS V14.01,2013-03-14 03:41:00,
2013-03-13 23:42:00,38.8,18.8,30.04,ENE,71,0.0,0.0,44,0.00,,---,0.00,VWS V14.01,2013-03-14 03:42:00,
2013-03-13 23:43:00,38.8,18.8,30.04,ENE,67,0.0,0.0,44,0.00,,---,0.00,VWS V14.01,2013-03-14 03:43:00,
2013-03-13 23:44:00,38.8,18.8,30.04,East,82,0.0,0.0,44,0.00,,---,0.00,VWS V14.01,2013-03-14 03:44:00,
2013-03-13 23:45:00,38.6,18.0,30.04,East,80,0.0,0.0,43,0.00,,---,0.00,VWS V14.01,2013-03-14 03:45:00,
2013-03-13 23:46:00,38.6,18.0,30.04,ENE,65,0.0,0.0,43,0.00,,---,0.00,VWS V14.01,2013-03-14 03:46:00,
2013-03-13 23:47:00,38.6,18.6,30.04,ENE,66,0.0,0.0,44,0.00,,---,0.00,VWS V14.01,2013-03-14 03:47:00,
2013-03-13 23:48:00,38.6,18.6,30.04,ENE,65,0.0,0.0,44,0.00,,---,0.00,VWS V14.01,2013-03-14 03:48:00,
2013-03-13 23:49:00,38.5,18.5,30.04,East,95,0.0,0.0,44,0.00,,---,0.00,VWS V14.01,2013-03-14 03:49:00,
2013-03-13 23:50:00,38.5,18.5,30.04,NNE,19,0.0,0.0,44,0.00,,---,0.00,VWS V14.01,2013-03-14 03:50:00,
2013-03-13 23:51:00,38.5,18.5,30.04,ENE,73,0.0,0.0,44,0.00,,---,0.00,VWS V14.01,2013-03-14 03:51:00,
2013-03-13 23:52:00,38.5,18.5,30.04,ENE,75,0.0,0.0,44,0.00,,---,0.00,VWS V14.01,2013-03-14 03:52:00,
2013-03-13 23:53:00,38.3,18.3,30.04,NE,39,0.0,0.0,44,0.00,,---,0.00,VWS V14.01,2013-03-14 03:53:00,
2013-03-13 23:54:00,38.3,18.3,30.04,East,80,0.0,0.0,44,0.00,,---,0.00,VWS V14.01,2013-03-14 03:54:00,
2013-03-13 23:55:00,38.3,18.8,30.04,ENE,59,0.0,0.0,45,0.00,,---,0.00,VWS V14.01,2013-03-14 03:55:00,
2013-03-13 23:56:00,38.3,18.8,30.04,East,86,0.0,0.0,45,0.00,,---,0.00,VWS V14.01,2013-03-14 03:56:00,
2013-03-13 23:57:00,38.2,18.8,30.04,ENE,71,0.0,0.0,45,0.00,,---,0.00,VWS V14.01,2013-03-14 03:57:00,
2013-03-13 23:58:00,38.2,18.8,30.04,ENE,75,0.0,0.0,45,0.00,,---,0.00,VWS V14.01,2013-03-14 03:58:00,
2013-03-13 23:59:00,38.2,18.8,30.04,ENE,61,0.0,0.0,45,0.00,,---,0.00,VWS V14.01,2013-03-14 03:59:00,